EW4927 Weather Reports


time (UTC)temp
F
wind
direction
speed
knots
gust
knots
rain 1hr
in
rain 24hr
in
rain mn
in
humidity
%
barometer
mb
20260902065915 58 0 0.0 0.0 0.03 0.08 0.07 97 1016.6
20260902064914 58 0 0.0 0.0 0.03 0.08 0.07 97 1016.7
20260902063914 58 0 0.0 0.0 0.04 0.08 0.07 97 1016.7
20260902062913 58 0 0.0 0.0 0.04 0.07 0.06 97 1016.7
20260902061915 57 0 0.0 0.0 0.04 0.07 0.06 97 1017.0
20260902060913 58 0 0.0 0.0 0.03 0.06 0.06 97 1017.2
20260902055911 58 0 0.0 0.0 0.02 0.05 0.04 97 1017.1
20260902054912 58 0 0.0 0.0 0.02 0.05 0.04 97 1017.1
20260902053910 57 0 0.0 0.0 0.02 0.04 0.03 97 1017.0
20260902051911 57 0 0.0 0.0 0.01 0.03 0.02 97 1016.9
20260902050909 57 0 0.0 0.0 0.02 0.03 0.02 97 1017.1
20260902044909 56 0 0.0 0.0 0.01 0.02 0.02 97 1017.3
20260902043908 56 0 0.0 0.0 0.01 0.02 0.02 97 1017.5
20260902042908 56 0 0.0 0.0 0.01 0.02 0.02 96 1017.3
20260902041906 56 0 0.0 0.0 0.01 0.02 0.02 96 1017.4
20260902040906 56 0 0.0 0.0 0.00 0.02 0.01 96 1017.4
20260901225911 57 0 0.0 0.0 0.00 0.01 0.00 96 1019.5
20260901224908 57 0 0.0 0.0 0.00 0.01 0.01 96 1019.4
20260901222907 57 0 0.0 0.0 0.00 0.01 0.01 96 1019.4
20260901220905 56 0 0.0 0.0 0.00 0.01 0.01 96 1019.2
20260901220009 56 0 0.0 0.0 0.00 0.01 0.01 96 1019.1
20260901214006 55 0 0.0 0.0 0.00 0.01 0.01 95 1019.1
20260901213006 55 0 0.0 0.0 0.00 0.01 0.01 94 1019.2
20260901212007 55 0 0.0 0.0 0.00 0.01 0.01 94 1019.3
20260901211007 55 0 0.0 0.0 0.00 0.01 0.01 94 1019.5
20260901210005 56 0 0.0 0.0 0.00 0.01 0.01 94 1019.6
20260901205004 56 0 0.0 0.0 0.00 0.01 0.01 93 1019.6
20260901204003 56 0 0.0 0.0 0.00 0.01 0.01 93 1019.6
20260901203004 57 0 0.0 0.0 0.00 0.01 0.01 92 1019.6
20260901200003 58 0 0.0 0.0 0.00 0.01 0.01 91 1019.6
20260901195001 59 0 0.0 0.0 0.00 0.01 0.01 91 1019.5
20260901194001 59 0 0.0 0.0 0.00 0.01 0.01 90 1019.5
20260901193000 59 0 0.0 0.0 0.00 0.01 0.01 90 1019.5
20260901191958 60 0 0.0 0.0 0.00 0.01 0.01 90 1019.4
20260901190959 60 0 0.0 0.0 0.00 0.01 0.01 90 1019.5
20260901184958 60 0 0.0 0.0 0.00 0.01 0.01 89 1019.2
20260901182957 60 0 0.0 0.0 0.00 0.01 0.01 88 1019.3
20260901181956 61 0 0.0 0.0 0.00 0.01 0.01 88 1019.3
20260901175956 61 0 0.0 0.0 0.00 0.01 0.01 87 1019.5
20260901174953 61 0 0.0 0.0 0.00 0.01 0.01 87 1019.3
20260901173953 61 0 0.0 0.0 0.00 0.01 0.01 86 1019.4
20260901172951 62 0 0.0 0.0 0.00 0.01 0.01 86 1019.6
20260901171953 62 0 0.0 0.0 0.00 0.01 0.01 85 1019.6
20260901170950 62 0 0.0 0.0 0.00 0.01 0.01 85 1019.5
20260901165952 62 0 0.0 0.0 0.00 0.01 0.01 85 1019.6
20260901164952 62 0 0.0 0.0 0.00 0.01 0.01 85 1019.6
20260901162948 63 0 0.0 0.0 0.00 0.01 0.01 82 1019.6
20260901161949 63 0 0.0 0.0 0.00 0.01 0.01 82 1019.5
20260901160949 63 0 0.0 0.0 0.00 0.01 0.01 83 1019.7
20260901155947 63 0 0.0 0.0 0.00 0.01 0.01 81 1019.8
20260901154947 63 0 0.0 0.0 0.00 0.01 0.01 80 1019.9
20260901151944 64 0 0.0 0.0 0.00 0.01 0.01 79 1020.0
20260901150943 64 0 0.0 0.0 0.00 0.01 0.01 78 1020.1
20260901145943 64 0 0.0 0.0 0.00 0.01 0.01 81 1019.8
20260901144943 64 0 0.0 0.0 0.00 0.01 0.01 81 1019.9
20260901143942 64 0 0.0 0.0 0.00 0.01 0.01 82 1020.0
20260901140941 65 0 0.0 0.0 0.00 0.01 0.01 84 1020.1
20260901135939 64 0 0.0 0.0 0.00 0.01 0.01 85 1020.1
20260901134939 63 0 0.0 0.0 0.00 0.01 0.01 84 1020.1
20260901133938 64 0 0.0 0.0 0.00 0.01 0.01 84 1020.1
20260901132938 63 0 0.0 0.0 0.00 0.01 0.01 85 1020.1
20260901131939 63 0 0.0 0.0 0.00 0.01 0.01 84 1020.1
20260901130937 63 0 0.0 0.0 0.01 0.01 0.01 82 1020.2
20260901125936 64 0 0.0 0.0 0.01 0.01 0.01 81 1020.1
20260901123936 64 0 0.0 0.0 0.01 0.01 0.01 86 1020.0
20260901122934 63 0 0.0 0.0 0.01 0.01 0.01 86 1020.0
20260901121935 64 0 0.0 0.0 0.01 0.01 0.01 82 1020.1
20260901120935 65 0 0.0 0.0 0.00 0.00 0.00 79 1020.1
20260901114932 65 0 0.0 0.0 0.00 0.00 0.00 79 1020.2
20260901113933 64 0 0.0 0.0 0.00 0.00 0.00 78 1020.0
20260901111932 64 0 0.0 0.0 0.00 0.00 0.00 84 1020.0
20260901110929 63 0 0.0 0.0 0.00 0.00 0.00 83 1020.1
20260901105931 63 0 0.0 0.0 0.00 0.00 0.00 83 1019.9
20260901104930 64 0 0.0 0.0 0.00 0.00 0.00 82 1019.9
20260901100927 63 0 0.0 0.0 0.00 0.00 0.00 85 1020.0
20260901095926 63 0 0.0 0.0 0.00 0.00 0.00 85 1020.1
20260901094925 63 0 0.0 0.0 0.00 0.00 0.00 85 1020.2
20260901093925 63 0 0.0 0.0 0.00 0.00 0.00 87 1020.2
20260901092924 62 0 0.0 0.0 0.00 0.02 0.00 88 1020.2
20260901091924 62 0 0.0 0.0 0.00 0.02 0.00 89 1020.2
20260901090925 62 0 0.0 0.0 0.00 0.02 0.00 92 1020.1
20260901085922 60 0 0.0 0.0 0.00 0.02 0.00 95 1020.1
20260901084922 59 0 0.0 0.0 0.00 0.02 0.00 96 1020.2
20260901083922 59 0 0.0 0.0 0.00 0.02 0.00 100 1020.2
20260901082921 57 0 0.0 0.0 0.00 0.03 0.00 100 1020.2
20260901081924 55 0 0.0 0.0 0.00 0.03 0.00 99 1020.1
20260901080919 54 0 0.0 0.0 0.00 0.03 0.00 99 1020.2
20260901074920 50 0 0.0 0.0 0.00 0.03 0.00 100 1020.3
20260901073918 49 0 0.0 0.0 0.00 0.03 0.00 100 1020.4
20260901072919 49 0 0.0 0.0 0.00 0.03 0.00 100 1020.2
20260901070916 47 0 0.0 0.0 0.00 0.03 0.00 100 1020.2